Regional Weather Roundup
Issued by NWS Grand Forks, ND

Home | Current Version | Previous Version | Graphics & Text | Print | Product List | Glossary On
Versions: 1 2 3 4 5 6 7 8 9 10 11 12 13 14 15 16 17 18 19 20 21 22 23 24 25 26 27 28 29 30 31 32 33 34 35 36 37 38 39 40 41 42 43 44 45 46 47 48 49 50
000
ASUS43 KFGF 230131
RWRFGF
PRAIRIE TO PINES  WEATHER ROUNDUP
NATIONAL WEATHER SERVICE EASTERN NORTH DAKOTA/GRAND FORKS ND
800 PM CDT MON SEP 22 2014

 **SATELLITE DATA USED TO AUGMENT SKY COVER AT AUTOMATED STATIONS**
 *****  WEATHER ACROSS EASTERN NORTH DAKOTA  *****

CITY           SKY/WX    TMP DP  RH WIND       PRES   REMARKS
GRAND FORKS    CLEAR     65  49  56 SE7       30.01S
GRAND FRKS AFB CLEAR     62  48  58 SE7       30.02S
GRAND FRKS NWS   N/A     64 N/A N/A SE7         N/A
DEVILS LAKE    CLEAR     63  48  59 SE8       29.98S
FARGO          CLEAR     69  47  45 S7        30.04S
WAHPETON ARPT  CLEAR     63  45  51 SE8       30.07R
$$

 ***** WEATHER ACROSS CENTRAL AND WESTERN NORTH DAKOTA  *****

CITY           SKY/WX    TMP DP  RH WIND       PRES   REMARKS
BISMARCK       PTCLDY    66  48  52 E10       29.95S
MINOT          CLEAR     66  47  50 E8        29.92R
JAMESTOWN      CLEAR     65  48  54 SE9       30.01S
MINOT AFB      CLEAR     65  49  57 SE6       29.91S
GARRISON         N/A     68  52  56 SE6       29.93S
WILLISTON      CLEAR     76  48  37 SE6       29.86F
DICKINSON      MOCLDY    65  51  60 SE10      29.90S
HETTINGER      PTCLDY    69  50  50 E12       29.91F
$$

 *****  OTHER AIRPORT OBSERVATIONS IN OUR AREA  *****

CITY           SKY/WX    TMP DP  RH WIND       PRES   REMARKS
WALHALLA         N/A     64  50  59 SE5       29.99S
GRAFTON AIRPOR FAIR      59  48  67 S9        30.01R
VALLEY CITY AR FAIR      59  48  67 S5        30.03S
CANDO          FAIR      57  48  72 SE9       29.99R
CAVALIER APRT  FAIR      63  48  59 S6        30.00R
GWINNER        CLEAR     61  48  63 S8        30.06S
ROLLA          FAIR      61  45  55 SE7       29.99S
 ***** THE ABOVE OBSERVATIONS ARE NON NWS ARE NOT QUALITY
       CONTROLLED AND MAY MIS-REPORT RAIN FOR SNOW...
$$

  *****  WEATHER ACROSS NORTHERN MINNESOTA  *****

CITY           SKY/WX    TMP DP  RH WIND       PRES   REMARKS
FLAG ISLAND    CLEAR     63  54  72 SW7       30.03R
WARROAD        CLEAR     61  54  77 CALM      30.05S
ROSEAU         CLEAR     55  50  82 S7        30.05S
HALLOCK        CLEAR     59  50  72 SE8       30.01S
THF RVR FALLS  CLEAR     63  48  59 SE5       30.06R
BAUDETTE       CLEAR     60  51  72 SW5       30.06R
WASKISH        CLEAR     54  52  94 CALM      30.09R
CROOKSTON      CLEAR     57  50  77 S8        30.05S
STEPHEN NDAWN    N/A     63  52  67 S7          N/A
GREENBUSH NDAW   N/A     59  52  77 SE3         N/A
$$
  *****  WEATHER ACROSS CENTRAL AND WEST MINNESOTA  *****

CITY           SKY/WX    TMP DP  RH WIND       PRES   REMARKS
FOSSTON        CLEAR     59  55  88 SE6       30.09S
BEMIDJI        CLEAR     62  49  62 SW3       30.10R
PARK RAPIDS    CLEAR     63  49  60 S5        30.10S
ELBOW LAKE     FAIR      61  50  66 SE6       30.10S
WADENA         CLEAR     55  48  76 CALM      30.12R
DETROIT LAKES  CLEAR     63  52  67 SE5       30.11R
MOORHEAD       CLEAR     64  50  59 S6        30.06S
FERGUS FALLS   CLEAR     61  46  59 SE7       30.09R
MORRIS MN      CLEAR     57  52  82 S7        30.10S
STAPLES        CLEAR     55  50  82 CALM      30.13R
$$
  *****  WEATHER ELSEWHERE ACROSS MINNESOTA  *****

CITY           SKY/WX    TMP DP  RH WIND       PRES   REMARKS
DULUTH         CLEAR     59  49  69 W6        30.12R
INTRNTL FALLS  CLEAR     54  51  90 SW3       30.06R
ELY            CLEAR     59  48  67 SW3       30.10R
CLOQUET        CLEAR     61  48  63 SW5       30.13R
WHEATON        CLEAR     61  48  63 S6        30.10S
BRAINERD       CLEAR     55  51  86 CALM      30.13R
HIBBING        CLEAR     54  50  86 CALM      30.10S
ALEXANDRIA     CLEAR     60  50  69 SE6       30.13R
SAINT CLOUD    CLEAR     61  52  72 SE3       30.13S
MINNEAPOLIS    CLEAR     67  49  52 S5        30.16R
$$

  *****  WEATHER ACROSS SOUTH DAKOTA  *****

CITY           SKY/WX    TMP DP  RH WIND       PRES   REMARKS
SIOUX FALLS    MOCLDY    66  49  54 S10       30.13S
BROOKINGS      NOT AVBL
WATERTOWN      CLEAR     61  48  62 S8        30.10S
HURON          PTCLDY    68  48  48 S9        30.06R
SISSETON         N/A     59  50  72 S8        30.07S
ABERDEEN       CLEAR     63  48  58 SE9       30.03F
MITCHELL       MOCLDY    68  50  52 SE14      30.08F
PIERRE         MOCLDY    69  50  50 S20G31    29.99R
MOBRIDGE       CLEAR     72  52  49 S12       29.94R
RAPID CITY     LGT RAIN  70  51  51 SW13      29.92R
$$

  *****  SOME WEATHER IN NEARBY STATES *****

CITY           SKY/WX    TMP DP  RH WIND       PRES   REMARKS
GLASGOW MT     CLEAR     75  49  39 CALM      29.82F
GREAT FALLS MT PTCLDY    74  49  41 SW10      29.88S
CHEYENNE WY    CLOUDY    64  46  52 NW12      30.17R
SCOTTSBLUFF NE PTCLDY    62  58  86 E6        30.05R
OMAHA NE       MOCLDY    66  51  58 SE8       30.18S
DES MOINES IA  PTCLDY    66  51  58 S6        30.22R
DAVENPORT IA   CLEAR     57  46  66 S3        30.24R
CHICAGO IL     CLEAR     59  44  57 SE9       30.24R
EAU CLAIRE WI  CLEAR     59  51  75 S3        30.17R
LA CROSSE WI   CLEAR     61  52  72 CALM      30.19R
$$

  *****  SOME NATIONAL WEATHER *****

CITY           SKY/WX    TMP DP  RH WIND       PRES   REMARKS
LA GUARDIA NY  MOCLDY    60  42  51 NW15G23   30.10R
RALEIGH NC     CLOUDY    65  58  78 CALM      30.13R
ATLANTA GA     CLEAR     69  50  50 N8        30.08R
NEW ORLEANS LA PTCLDY    83  59  44 NE21      30.01R
OKLAHOMA CITY  MOCLDY    70  49  47 SE7       30.17S
ALBUQUERQUE NM CLOUDY    70  53  54 SE8       30.23R
SALT LAKE CITY MOCLDY    73  51  46 CALM      30.09S
LOS ANGELES CA PTCLDY    70  63  78 W13       29.92S
BOISE ID       PTCLDY    80  49  33 VRB3      29.97F
SEATTLE WA     PTSUNNY   68  53  58 CALM      29.95F
$$

*** WEATHER ACROSS MANITOBA...SASKATCHEWAN AND ONTARIO ***
                ***ONTARIO***

CITY           SKY/WX    TMP DP  RH WIND       PRES   REMARKS
GERALDTON      MOCLDY    63  52  67 W6        29.92R
THUNDER BAY    CLEAR     61  52  72 SW7       30.01R
SIOUX LOOKOUT  CLEAR     63  52  67 W5        29.99R
TORONTO        CLEAR     50  39  66 W10       30.17R
BIG TROUT LK   MOCLDY    50  46  87 NE7       30.01R FOG
PICKLE LAKE    PTCLDY    63  52  67 VRB2      29.95R
DRYDEN         NOT AVBL
KENORA         CLEAR     63  52  67 SW3       30.04
$$
                *** MANITOBA***

CITY           SKY/WX    TMP DP  RH WIND       PRES   REMARKS
BRANDON        PTCLDY    64  48  55 E5        29.95S
DAUPHIN        CLEAR     64  46  52 S6        29.91S
ISLAND LAKE    PTCLDY    61  52  72 CALM      29.96R
PILOT MOUND      N/A     59  43  55 SE9         N/A
THE PAS        PTCLDY    66  50  55 SE10      29.81S
THOMPSON       MOCLDY   N/A N/A N/A E8          N/A
WINNIPEG       CLEAR     66  48  52 S8        29.98R
LYNN LAKE      CLEAR     59  50  72 E12G18    29.79S
CHURCHILL      MOCLDY    39  34  81 SE12      30.11R
GILLAM         PTCLDY    43  39  87 E6        30.04R
$$
                ***SASKATCHEWAN***

CITY           SKY/WX    TMP DP  RH WIND       PRES   REMARKS
ESTEVAN        CLEAR     64  50  59 SE6       29.89S
KINDERSLEY     PTCLDY    73  50  43 W5        29.75S
LLOYDMINSTER   PTCLDY    70  48  46 SW2       29.72F
PRINCE ALBERT  PTCLDY    72  50  46 S9        29.74F
REGINA         PTCLDY    68  50  52 SE10      29.85S
YORKTON        CLEAR     68  45  42 S6        29.88S
N. BATTLEFORD  CLEAR     66  48  52 SE7       29.73F HAZE
LA RONGE       PTCLDY    73  50  43 S10       29.70R
SASKATOON      PTCLDY    73  50  43 SE10      29.76F
SWIFT CURRENT  CLEAR     66  48  52 S12       29.80S
$$
NOTE: THESE ARE AUTOMATED STATIONS WITH LIMITED QUALITY CONTROL
      "FAIR" INDICATES FEW OR NO CLOUDS BELOW 12,000 FEET WITH NO
      SIGNIFICANT WEATHER AND/OR OBSTRUCTIONS TO VISIBILITY.
      SKY/WX - SKY CONDITION AND SIGNIFICANT WEATHER.
      TMP - AIR TEMPERATURE.    DP   - DEWPOINT TEMPERATURE.
      RH  - RELATIVE HUMIDITY.  PRES - PRESSURE.
      HX  - HEAT INDEX.         WCI  - WIND CHILL INDEX.
$


USA.gov is the U.S. government's official web portal to all federal, state and local government web resources and services.